Home   Weather   Konya   Past weeks

Flag for Turkey Past Weather in Konya, Turkey — Yesterday and Last 2 Weeks

Now
75 °F

Clear.


Feels Like: 78 °F
Forecast: 65 / 87 °F
Wind: 16 mph from Northwest

Location: Konya Airport

Current Time: Aug 19, 2017 at 1:20:46 am

Latest Report: Aug 18, 2017 at 11:50 pm


Visibility: 10 mi

Pressure: 29.98 "Hg (26.60 "Hg at 1041m altitude)

Humidity: 44%

Dew Point: 52 °F

Location of KonyaLocation

Past Weather in Konya — Graph

°F

Konya Temperature Yesterday

Maximum temperature yesterday: 88 °F (at 3:50 pm)
Minimum temperature yesterday: 66 °F (at 5:50 am)
Average temperature yesterday: 78 °F

High & Low Weather Summary for the Past Weeks

 TemperatureHumidityPressure
High97 °F (Aug 9, 3:50 pm)94% (Aug 5, 2:50 am)30.04 "Hg (Aug 5, 2:50 am)
Low61 °F (Aug 5, 2:50 am)13% (Aug 8, 4:50 pm)29.77 "Hg (Aug 13, 5:50 pm)
Average79 °F44%29.91 "Hg
* Reported Aug 3 11:50 pm — Aug 18 11:50 pm, Konya. Weather by CustomWeather, © 2017

Note: Actual official high and low records may vary slightly from our data, if they occured in-between our weather recording intervals... More about our weather records

Advertising

Konya Weather History for the Previous 24 Hours

Scroll right to see more
 ConditionsComfort  
Time TempWeatherWind HumidityBarometerVisibility
11:50 pm
Fri, Aug 18
75 °FClear.16 mph44%29.98 "Hg10 mi
10:50 pm77 °FPassing clouds.13 mph42%29.98 "HgN/A
9:50 pm77 °FPassing clouds.17 mph44%29.95 "HgN/A
8:50 pm81 °FPassing clouds.18 mph42%29.95 "HgN/A
7:50 pm82 °FPassing clouds.9 mph35%29.92 "HgN/A
6:50 pm84 °FScattered clouds.7 mph31%29.92 "HgN/A
5:50 pm86 °FScattered clouds.8 mph31%29.92 "HgN/A
4:50 pm88 °FScattered clouds.12 mph29%29.92 "HgN/A
3:50 pm88 °FScattered clouds.12 mph31%29.92 "HgN/A
2:50 pm86 °FScattered clouds.13 mph35%29.92 "HgN/A
1:50 pm84 °FScattered clouds.16 mph37%29.95 "HgN/A
12:50 pm82 °FScattered clouds.15 mph40%29.95 "HgN/A
11:50 am81 °FPassing clouds.15 mph42%29.98 "HgN/A
10:50 am79 °FSunny.16 mph45%29.98 "Hg10 mi
9:50 am77 °FSunny.17 mph44%29.98 "Hg10 mi
8:50 am75 °FSunny.13 mph50%29.95 "Hg10 mi
7:50 am72 °FPassing clouds.3 mph57%29.95 "HgN/A
6:50 am68 °FSunny.8 mph64%29.92 "Hg10 mi
5:50 am66 °FClear.5 mph68%29.92 "Hg10 mi
4:50 am70 °FClear.7 mph57%29.92 "Hg10 mi
3:50 am72 °FClear.9 mph53%29.92 "Hg10 mi
2:50 am72 °FClear.10 mph53%29.92 "Hg10 mi
1:50 am73 °FClear.14 mph53%29.89 "Hg10 mi
Weather by CustomWeather, © 2017

See weather overviewHow to use our weather pages